DW2911 Weather Reports


time (UTC)temp
C
wind
direction
speed
KPH
gust
KPH
rain 1hr
cm
rain 24hr
cm
rain mn
cm
humidity
%
barometer
mb
20260504204549 24 0.0 0.0 0.00 0.00 0.00 30 1002.6
20260504204045 24 0.0 0.0 0.00 0.00 0.00 33 1002.6
20260504203617 24 0.0 0.0 0.00 0.00 0.00 31 1002.4
20260504203108 25 0.0 0.0 0.00 0.00 0.00 31 1002.3
20260504202555 25 0.0 0.0 0.00 0.00 0.00 29 1002.4
20260504202047 25 0.0 0.0 0.00 0.00 0.00 30 1002.3
20260504201559 25 0.0 0.0 0.00 0.00 0.00 28 1002.3
20260504201049 26 0.0 0.0 0.00 0.00 0.00 28 1002.4
20260504200602 26 0.0 0.0 0.00 0.00 0.00 26 1002.4
20260504200127 26 0.0 0.0 0.00 0.00 0.00 27 1002.5
20260504195613 26 0.0 0.0 0.00 0.00 0.00 27 1002.5
20260504195047 27 0.0 0.0 0.00 0.00 0.00 26 1002.5
20260504194558 27 0.0 0.0 0.00 0.00 0.00 20 1002.6
20260504194050 27 0.0 0.0 0.00 0.00 0.00 20 1002.7
20260504193602 27 0.0 0.0 0.00 0.00 0.00 19 1002.5
20260504193053 27 0.0 0.0 0.00 0.00 0.00 20 1002.4
20260504192544 27 0.0 0.0 0.00 0.00 0.00 20 1002.6
20260504192057 27 0.0 0.0 0.00 0.00 0.00 21 1002.7
20260504191549 27 0.0 0.0 0.00 0.00 0.00 25 1002.7
20260504191045 26 0.0 0.0 0.00 0.00 0.00 21 1002.7
20260504190556 26 0.0 0.0 0.00 0.00 0.00 23 1002.8
20260504190122 26 0.0 0.0 0.00 0.00 0.00 22 1002.8
20260504185550 26 0.0 0.0 0.00 0.00 0.00 21 1002.8
20260504185101 26 0.0 0.0 0.00 0.00 0.00 20 1002.9
20260504184614 26 0.0 0.0 0.00 0.00 0.00 18 1002.9
20260504184043 26 0.0 0.0 0.00 0.00 0.00 21 1003.0
20260504183555 26 0.0 0.0 0.00 0.00 0.00 22 1002.8
20260504183047 26 0.0 0.0 0.00 0.00 0.00 22 1003.0
20260504182543 26 0.0 0.0 0.00 0.00 0.00 23 1003.2
20260504182055 26 0.0 0.0 0.00 0.00 0.00 24 1003.2
20260504181548 26 0.0 0.0 0.00 0.00 0.00 24 1003.2
20260504181120 26 0.0 0.0 0.00 0.00 0.00 21 1003.2
20260504180552 25 0.0 0.0 0.00 0.00 0.00 22 1003.3
20260504180115 25 0.0 0.0 0.00 0.00 0.00 21 1003.4
20260504175543 26 0.0 0.0 0.00 0.00 0.00 21 1003.5
20260504175054 26 0.0 0.0 0.00 0.00 0.00 24 1003.5
20260504174606 26 0.0 0.0 0.00 0.00 0.00 22 1003.6
20260504174055 26 0.0 0.0 0.00 0.00 0.00 23 1003.6
20260504173551 26 0.0 0.0 0.00 0.00 0.00 21 1003.6
20260504173044 26 0.0 0.0 0.00 0.00 0.00 19 1003.7
20260504172556 26 0.0 0.0 0.00 0.00 0.00 17 1003.7
20260504172047 26 0.0 0.0 0.00 0.00 0.00 20 1003.7
20260504171559 25 0.0 0.0 0.00 0.00 0.00 19 1003.7
20260504171050 26 0.0 0.0 0.00 0.00 0.00 20 1003.8
20260504170621 26 0.0 0.0 0.00 0.00 0.00 22 1003.8
20260504170107 26 0.0 0.0 0.00 0.00 0.00 22 1003.8
20260504160119 24 0.0 0.0 0.00 0.00 0.00 26 1003.8
20260504151053 21 0.0 0.0 0.00 0.00 0.00 36 1004.4
20260504150546 21 0.0 0.0 0.00 0.00 0.00 36 1004.4
20260504150149 21 0.0 0.0 0.00 0.00 0.00 36 1004.4
20260504141041 16 0.0 0.0 0.00 0.00 0.00 46 1004.8
20260504140553 16 0.0 0.0 0.00 0.00 0.00 47 1004.7
20260504140120 15 0.0 0.0 0.00 0.00 0.00 47 1004.8
20260504130552 11 0.0 0.0 0.00 0.00 0.00 62 1004.6
20260504130119 11 0.0 0.0 0.00 0.00 0.00 63 1004.4
20260504120110 8 0.0 0.0 0.00 0.00 0.00 62 1004.3
20260504110558 7 0.0 0.0 0.00 0.00 0.00 67 1004.4
20260504110124 7 0.0 0.0 0.00 0.00 0.00 67 1004.4
20260504100552 7 0.0 0.0 0.00 0.00 0.00 67 1004.7
20260504100119 7 0.0 0.0 0.00 0.00 0.00 67 1004.7
20260504090121 7 0.0 0.0 0.00 0.00 0.00 64 1004.9
20260504081541 9 0.0 0.0 0.00 0.00 0.00 60 1005.5
20260504081053 9 0.0 0.0 0.00 0.00 0.00 59 1005.4
20260504080543 10 0.0 0.0 0.00 0.00 0.00 58 1005.4
20260504080115 10 0.0 0.0 0.00 0.00 0.00 56 1005.5
20260504070106 10 0.0 0.0 0.00 0.00 0.00 55 1006.0
20260504060119 10 0.0 0.0 0.00 0.00 0.00 55 1006.6
20260504050600 12 0.0 0.0 0.00 0.00 0.00 49 1007.2
20260504050105 12 0.0 0.0 0.00 0.00 0.00 49 1007.1
20260504045553 12 0.0 0.0 0.00 0.00 0.00 48 1007.1
20260504045050 12 0.0 0.0 0.00 0.00 0.00 47 1007.1
20260504044542 13 0.0 0.0 0.00 0.00 0.00 47 1007.2
20260504044054 12 0.0 0.0 0.00 0.00 0.00 48 1007.2
20260504043545 12 0.0 0.0 0.00 0.00 0.00 48 1007.2
20260504043058 12 0.0 0.0 0.00 0.00 0.00 48 1007.2
20260504042549 12 0.0 0.0 0.00 0.00 0.00 49 1007.2
20260504042100 12 0.0 0.0 0.00 0.00 0.00 47 1007.2
20260504041552 12 0.0 0.0 0.00 0.00 0.00 47 1007.3
20260504041042 13 0.0 0.0 0.00 0.00 0.00 46 1007.2
20260504040558 13 0.0 0.0 0.00 0.00 0.00 45 1007.3
20260504040104 13 0.0 0.0 0.00 0.00 0.00 46 1007.3
20260504035552 13 0.0 0.0 0.00 0.00 0.00 47 1007.4
20260504035044 12 0.0 0.0 0.00 0.00 0.00 47 1007.5
20260504034553 13 0.0 0.0 0.00 0.00 0.00 46 1007.4
20260504034044 13 0.0 0.0 0.00 0.00 0.00 45 1007.2
20260504033612 13 0.0 0.0 0.00 0.00 0.00 45 1007.2
20260504033044 13 0.0 0.0 0.00 0.00 0.00 45 1007.2
20260504032555 13 0.0 0.0 0.00 0.00 0.00 45 1007.2
20260504032047 13 0.0 0.0 0.00 0.00 0.00 45 1007.1
20260504031559 13 0.0 0.0 0.00 0.00 0.00 45 1007.1
20260504031048 13 0.0 0.0 0.00 0.00 0.00 44 1007.2
20260504030559 13 0.0 0.0 0.00 0.00 0.00 44 1007.1
20260504030104 14 0.0 0.0 0.00 0.00 0.00 43 1007.1
20260504025551 14 0.0 0.0 0.00 0.00 0.00 43 1007.1
20260504025043 14 0.0 0.0 0.00 0.00 0.00 43 1006.9
20260504024555 14 0.0 0.0 0.00 0.00 0.00 43 1006.8
20260504024045 15 0.0 0.0 0.00 0.00 0.00 42 1006.8
20260504023617 15 0.0 0.0 0.00 0.00 0.00 42 1006.8
20260504023051 15 0.0 0.0 0.00 0.00 0.00 41 1006.8
20260504022543 15 0.0 0.0 0.00 0.00 0.00 40 1006.9
20260504022054 15 0.0 0.0 0.00 0.00 0.00 40 1006.9
20260504021546 15 0.0 0.0 0.00 0.00 0.00 39 1006.9
20260504021058 16 0.0 0.0 0.00 0.00 0.00 38 1006.8
20260504020549 16 0.0 0.0 0.00 0.00 0.00 38 1006.8
20260504020116 16 0.0 0.0 0.00 0.00 0.00 37 1006.7
20260504015621 17 0.0 0.0 0.00 0.00 0.00 38 1006.7
20260504015048 17 0.0 0.0 0.00 0.00 0.00 38 1006.6
20260504014544 17 0.0 0.0 0.00 0.00 0.00 39 1006.7
20260504014055 17 0.0 0.0 0.00 0.00 0.00 40 1006.6
20260504013547 17 0.0 0.0 0.00 0.00 0.00 40 1006.6
20260504013117 17 0.0 0.0 0.00 0.00 0.00 40 1006.6
20260504012608 17 0.0 0.0 0.00 0.00 0.00 40 1006.6
20260504012058 17 0.0 0.0 0.00 0.00 0.00 39 1006.6
20260504011609 18 0.0 0.0 0.00 0.00 0.00 39 1006.7
20260504011057 18 0.0 0.0 0.00 0.00 0.00 39 1006.7
20260504010610 18 0.0 0.0 0.00 0.00 0.00 39 1006.7
20260504010114 19 0.0 0.0 0.00 0.00 0.00 39 1006.7
20260504005541 20 0.0 0.0 0.00 0.00 0.00 38 1006.8
20260504005057 20 0.0 0.0 0.00 0.00 0.00 37 1006.8
20260504004545 20 0.0 0.0 0.00 0.00 0.00 36 1006.9
20260504004056 21 0.0 0.0 0.00 0.00 0.00 35 1006.9
20260504003546 21 0.0 0.0 0.00 0.00 0.00 34 1007.0
20260504003058 21 0.0 0.0 0.00 0.00 0.00 32 1007.0
20260504002547 21 0.0 0.0 0.00 0.00 0.00 33 1007.0
20260504002056 21 0.0 0.0 0.00 0.00 0.00 32 1007.1
20260504001544 21 0.0 0.0 0.00 0.00 0.00 31 1007.2
20260504001039 22 0.0 0.0 0.00 0.00 0.00 30 1007.3
20260504000611 22 0.0 0.0 0.00 0.00 0.00 30 1007.3
20260504000115 22 0.0 0.0 0.00 0.00 0.00 32 1007.4
20260503235543 22 0.0 0.0 0.00 0.00 0.00 27 1007.5
20260503235050 22 0.0 0.0 0.00 0.00 0.00 31 1007.5
20260503234542 22 0.0 0.0 0.00 0.00 0.00 32 1007.6
20260503234052 23 0.0 0.0 0.00 0.00 0.00 29 1007.7
20260503233544 23 0.0 0.0 0.00 0.00 0.00 27 1007.7
20260503233116 23 0.0 0.0 0.00 0.00 0.00 27 1007.8
20260503232544 23 0.0 0.0 0.00 0.00 0.00 29 1007.9
20260503232040 23 0.0 0.0 0.00 0.00 0.00 31 1007.9
20260503231551 22 0.0 0.0 0.00 0.00 0.00 31 1007.9
20260503231102 22 0.0 0.0 0.00 0.00 0.00 30 1007.7
20260503230551 22 0.0 0.0 0.00 0.00 0.00 30 1007.7
20260503230134 22 0.0 0.0 0.00 0.00 0.00 28 1007.8
20260503225539 22 0.0 0.0 0.00 0.00 0.00 28 1007.9
20260503225050 22 0.0 0.0 0.00 0.00 0.00 29 1008.0
20260503224542 23 0.0 0.0 0.00 0.00 0.00 29 1008.0
20260503224053 23 0.0 0.0 0.00 0.00 0.00 28 1007.9
20260503223545 23 0.0 0.0 0.00 0.00 0.00 27 1007.9
20260503223040 23 0.0 0.0 0.00 0.00 0.00 28 1008.0
20260503222550 23 0.0 0.0 0.00 0.00 0.00 28 1008.0
20260503222101 23 0.0 0.0 0.00 0.00 0.00 28 1008.2
20260503221550 23 0.0 0.0 0.00 0.00 0.00 27 1008.4
20260503221042 23 0.0 0.0 0.00 0.00 0.00 27 1008.5
20260503220555 23 0.0 0.0 0.00 0.00 0.00 26 1008.6
20260503220122 23 0.0 0.0 0.00 0.00 0.00 26 1008.7
20260503215549 23 0.0 0.0 0.00 0.00 0.00 27 1008.7
20260503215039 23 0.0 0.0 0.00 0.00 0.00 26 1008.8
20260503214556 23 0.0 0.0 0.00 0.00 0.00 27 1009.0
20260503214045 23 0.0 0.0 0.00 0.00 0.00 27 1009.1
20260503213557 23 0.0 0.0 0.00 0.00 0.00 26 1009.1
20260503213106 23 0.0 0.0 0.00 0.00 0.00 27 1009.2
20260503212557 24 0.0 0.0 0.00 0.00 0.00 29 1009.3
20260503212050 24 0.0 0.0 0.00 0.00 0.00 26 1009.3
20260503211600 24 0.0 0.0 0.00 0.00 0.00 28 1009.2
20260503211051 24 0.0 0.0 0.00 0.00 0.00 26 1009.3
20260503210602 24 0.0 0.0 0.00 0.00 0.00 26 1009.3
20260503210107 24 0.0 0.0 0.00 0.00 0.00 26 1009.3
20260503205540 24 0.0 0.0 0.00 0.00 0.00 25 1009.3